Year,Month,Day,Hour,Minute,Value (Times are PST for temperature in C)
2015,07,05,00,00,17.20
2015,07,05,00,01,17.20
2015,07,05,00,02,17.10
2015,07,05,00,03,17.00
2015,07,05,00,04,17.00
2015,07,05,00,05,16.90
2015,07,05,00,06,16.90
2015,07,05,00,07,16.80
2015,07,05,00,08,16.80
2015,07,05,00,09,16.70
2015,07,05,00,10,16.70
2015,07,05,00,11,16.70
2015,07,05,00,12,16.60
2015,07,05,00,13,16.50
2015,07,05,00,14,16.50
2015,07,05,00,15,16.40
2015,07,05,00,16,16.30
2015,07,05,00,17,16.30
2015,07,05,00,18,16.30
2015,07,05,00,19,16.20
2015,07,05,00,20,16.20
2015,07,05,00,21,16.20
2015,07,05,00,22,16.20
2015,07,05,00,23,16.20
2015,07,05,00,24,16.20
2015,07,05,00,25,16.20
2015,07,05,00,26,16.20
2015,07,05,00,27,16.20
2015,07,05,00,28,16.20
2015,07,05,00,29,16.20
2015,07,05,00,30,16.20
2015,07,05,00,31,16.20
2015,07,05,00,32,16.20
2015,07,05,00,33,16.20
2015,07,05,00,34,16.20
2015,07,05,00,35,16.20
2015,07,05,00,36,16.20
2015,07,05,00,37,16.20
2015,07,05,00,38,16.20
2015,07,05,00,39,16.30
2015,07,05,00,40,16.30
2015,07,05,00,41,16.30
2015,07,05,00,42,16.30
2015,07,05,00,43,16.30
2015,07,05,00,44,16.30
2015,07,05,00,45,16.40
2015,07,05,00,46,16.40
2015,07,05,00,47,16.50
2015,07,05,00,48,16.50
2015,07,05,00,49,16.60
2015,07,05,00,50,16.60
2015,07,05,00,51,16.70
2015,07,05,00,52,16.70
2015,07,05,00,53,16.80
2015,07,05,00,54,16.80
2015,07,05,00,55,16.90
2015,07,05,00,56,16.90
2015,07,05,00,57,17.00
2015,07,05,00,58,17.00
2015,07,05,00,59,17.10
2015,07,05,01,00,17.10
2015,07,05,01,01,17.20
2015,07,05,01,02,17.20
2015,07,05,01,03,17.20
2015,07,05,01,04,17.20
2015,07,05,01,05,17.20
2015,07,05,01,06,17.20
2015,07,05,01,07,17.20
2015,07,05,01,08,17.20
2015,07,05,01,09,17.30
2015,07,05,01,10,17.30
2015,07,05,01,11,17.30
2015,07,05,01,12,17.30
2015,07,05,01,13,17.30
2015,07,05,01,14,17.30
2015,07,05,01,15,17.30
2015,07,05,01,16,17.30
2015,07,05,01,17,17.30
2015,07,05,01,18,17.30
2015,07,05,01,19,17.30
2015,07,05,01,20,17.30
2015,07,05,01,21,17.30
2015,07,05,01,22,17.40
2015,07,05,01,23,17.40
2015,07,05,01,24,17.40
2015,07,05,01,25,17.50
2015,07,05,01,26,17.50
2015,07,05,01,27,17.50
2015,07,05,01,28,17.60
2015,07,05,01,29,17.60
2015,07,05,01,30,17.70
2015,07,05,01,31,17.70
2015,07,05,01,32,17.80
2015,07,05,01,33,17.80
2015,07,05,01,34,17.80
2015,07,05,01,35,17.90
2015,07,05,01,36,17.90
2015,07,05,01,37,17.90
2015,07,05,01,38,17.90
2015,07,05,01,39,17.90
2015,07,05,01,40,17.90
2015,07,05,01,41,17.90
2015,07,05,01,42,17.90
2015,07,05,01,43,17.90
2015,07,05,01,44,17.90
2015,07,05,01,45,17.90
2015,07,05,01,46,17.80
2015,07,05,01,47,17.80
2015,07,05,01,48,17.80
2015,07,05,01,49,17.70
2015,07,05,01,50,17.70
2015,07,05,01,51,17.70
2015,07,05,01,52,17.70
2015,07,05,01,53,17.70
2015,07,05,01,54,17.70
2015,07,05,01,55,17.70
2015,07,05,01,56,17.70
2015,07,05,01,57,17.70
2015,07,05,01,58,17.70
2015,07,05,01,59,17.70
2015,07,05,02,00,17.70
2015,07,05,02,01,17.80
2015,07,05,02,02,17.80
2015,07,05,02,03,17.80
2015,07,05,02,04,17.80
2015,07,05,02,05,17.90
2015,07,05,02,06,17.90
2015,07,05,02,07,17.90
2015,07,05,02,08,17.90
2015,07,05,02,09,17.90
2015,07,05,02,10,18.00
2015,07,05,02,11,18.00
2015,07,05,02,12,18.00
2015,07,05,02,13,18.00
2015,07,05,02,14,18.00
2015,07,05,02,15,18.10
2015,07,05,02,16,18.10
2015,07,05,02,17,18.10
2015,07,05,02,18,18.10
2015,07,05,02,19,18.10
2015,07,05,02,20,18.10
2015,07,05,02,21,18.10
2015,07,05,02,22,18.10
2015,07,05,02,23,18.10
2015,07,05,02,24,18.20
2015,07,05,02,25,18.20
2015,07,05,02,26,18.20
2015,07,05,02,27,18.20
2015,07,05,02,28,18.20
2015,07,05,02,29,18.20
2015,07,05,02,30,18.30
2015,07,05,02,31,18.30
2015,07,05,02,32,18.30
2015,07,05,02,33,18.30
2015,07,05,02,34,18.30
2015,07,05,02,35,18.30
2015,07,05,02,36,18.20
2015,07,05,02,37,18.20
2015,07,05,02,38,18.20
2015,07,05,02,39,18.20
2015,07,05,02,40,18.20
2015,07,05,02,41,18.30
2015,07,05,02,42,18.30
2015,07,05,02,43,18.30
2015,07,05,02,44,18.20
2015,07,05,02,45,18.20
2015,07,05,02,46,18.20
2015,07,05,02,47,18.20
2015,07,05,02,48,18.20
2015,07,05,02,49,18.20
2015,07,05,02,50,18.30
2015,07,05,02,51,18.30
2015,07,05,02,52,18.30
2015,07,05,02,53,18.30
2015,07,05,02,54,18.30
2015,07,05,02,55,18.20
2015,07,05,02,56,18.20
2015,07,05,02,57,18.20
2015,07,05,02,58,18.20
2015,07,05,02,59,18.20
2015,07,05,03,00,18.10
2015,07,05,03,01,18.10
2015,07,05,03,02,18.10
2015,07,05,03,03,18.10
2015,07,05,03,04,18.20
2015,07,05,03,05,18.20
2015,07,05,03,06,18.20
2015,07,05,03,07,18.20
2015,07,05,03,08,18.20
2015,07,05,03,09,18.30
2015,07,05,03,10,18.30
2015,07,05,03,11,18.30
2015,07,05,03,12,18.30
2015,07,05,03,13,18.20
2015,07,05,03,14,18.20
2015,07,05,03,15,18.30
2015,07,05,03,16,18.30
2015,07,05,03,17,18.30
2015,07,05,03,18,18.30
2015,07,05,03,19,18.40
2015,07,05,03,20,18.40
2015,07,05,03,21,18.30
2015,07,05,03,22,18.30
2015,07,05,03,23,18.30
2015,07,05,03,24,18.40
2015,07,05,03,25,18.40
2015,07,05,03,26,18.50
2015,07,05,03,27,18.50
2015,07,05,03,28,18.60
2015,07,05,03,29,18.60
2015,07,05,03,30,18.70
2015,07,05,03,31,18.70
2015,07,05,03,32,18.70
2015,07,05,03,33,18.70
2015,07,05,03,34,18.70
2015,07,05,03,35,18.60
2015,07,05,03,36,18.60
2015,07,05,03,37,18.60
2015,07,05,03,38,18.60
2015,07,05,03,39,18.60
2015,07,05,03,40,18.60
2015,07,05,03,41,18.60
2015,07,05,03,42,18.60
2015,07,05,03,43,18.60
2015,07,05,03,44,18.60
2015,07,05,03,45,18.70
2015,07,05,03,46,18.80
2015,07,05,03,47,18.80
2015,07,05,03,48,18.80
2015,07,05,03,49,18.80
2015,07,05,03,50,18.80
2015,07,05,03,51,18.80
2015,07,05,03,52,18.80
2015,07,05,03,53,18.80
2015,07,05,03,54,18.80
2015,07,05,03,55,18.80
2015,07,05,03,56,18.90
2015,07,05,03,57,18.90
2015,07,05,03,58,18.90
2015,07,05,03,59,19.00
2015,07,05,04,00,19.00
2015,07,05,04,01,19.10
2015,07,05,04,02,19.10
2015,07,05,04,03,19.10
2015,07,05,04,04,19.10
2015,07,05,04,05,19.20
2015,07,05,04,06,19.20
2015,07,05,04,07,19.10
2015,07,05,04,08,19.10
2015,07,05,04,09,19.10
2015,07,05,04,10,19.10
2015,07,05,04,11,19.10
2015,07,05,04,12,19.00
2015,07,05,04,13,19.00
2015,07,05,04,14,19.00
2015,07,05,04,15,19.00
2015,07,05,04,16,19.00
2015,07,05,04,17,18.90
2015,07,05,04,18,18.90
2015,07,05,04,19,18.90
2015,07,05,04,20,18.90
2015,07,05,04,21,18.90
2015,07,05,04,22,18.90
2015,07,05,04,23,18.90
2015,07,05,04,24,18.90
2015,07,05,04,25,18.90
2015,07,05,04,26,18.90
2015,07,05,04,27,18.90
2015,07,05,04,28,18.90
2015,07,05,04,29,19.00
2015,07,05,04,30,19.00
2015,07,05,04,31,19.00
2015,07,05,04,32,18.90
2015,07,05,04,33,18.90
2015,07,05,04,34,18.90
2015,07,05,04,35,18.90
2015,07,05,04,36,18.80
2015,07,05,04,37,18.80
2015,07,05,04,38,18.80
2015,07,05,04,39,18.80
2015,07,05,04,40,18.80
2015,07,05,04,41,18.70
2015,07,05,04,42,18.60
2015,07,05,04,43,18.50
2015,07,05,04,44,18.50
2015,07,05,04,45,18.40
2015,07,05,04,46,18.40
2015,07,05,04,47,18.30
2015,07,05,04,48,18.30
2015,07,05,04,49,18.30
2015,07,05,04,50,18.30
2015,07,05,04,51,18.30
2015,07,05,04,52,18.20
2015,07,05,04,53,18.20
2015,07,05,04,54,18.20
2015,07,05,04,55,18.20
2015,07,05,04,56,18.20
2015,07,05,04,57,18.20
2015,07,05,04,58,18.20
2015,07,05,04,59,18.20
2015,07,05,05,00,18.20
2015,07,05,05,01,18.30
2015,07,05,05,02,18.30
2015,07,05,05,03,18.30
2015,07,05,05,04,18.40
2015,07,05,05,05,18.40
2015,07,05,05,06,18.50
2015,07,05,05,07,18.50
2015,07,05,05,08,18.60
2015,07,05,05,09,18.60
2015,07,05,05,10,18.60
2015,07,05,05,11,18.60
2015,07,05,05,12,18.60
2015,07,05,05,13,18.60
2015,07,05,05,14,18.60
2015,07,05,05,15,18.60
2015,07,05,05,16,18.60
2015,07,05,05,17,18.50
2015,07,05,05,18,18.50
2015,07,05,05,19,18.50
2015,07,05,05,20,18.50
2015,07,05,05,21,18.50
2015,07,05,05,22,18.50
2015,07,05,05,23,18.50
2015,07,05,05,24,18.50
2015,07,05,05,25,18.50
2015,07,05,05,26,18.50
2015,07,05,05,27,18.50
2015,07,05,05,28,18.50
2015,07,05,05,29,18.50
2015,07,05,05,30,18.40
2015,07,05,05,31,18.40
2015,07,05,05,32,18.40
2015,07,05,05,33,18.40
2015,07,05,05,34,18.40
2015,07,05,05,35,18.40
2015,07,05,05,36,18.40
2015,07,05,05,37,18.40
2015,07,05,05,38,18.40
2015,07,05,05,39,18.40
2015,07,05,05,40,18.40
2015,07,05,05,41,18.40
2015,07,05,05,42,18.50
2015,07,05,05,43,18.50
2015,07,05,05,44,18.50
2015,07,05,05,45,18.50
2015,07,05,05,46,18.50
2015,07,05,05,47,18.50
2015,07,05,05,48,18.50
2015,07,05,05,49,18.50
2015,07,05,05,50,18.50
2015,07,05,05,51,18.50
2015,07,05,05,52,18.50
2015,07,05,05,53,18.50
2015,07,05,05,54,18.50
2015,07,05,05,55,18.50
2015,07,05,05,56,18.50
2015,07,05,05,57,18.50
2015,07,05,05,58,18.60
2015,07,05,05,59,18.60
2015,07,05,06,00,18.60
2015,07,05,06,01,18.60
2015,07,05,06,02,18.60
2015,07,05,06,03,18.60
2015,07,05,06,04,18.60
2015,07,05,06,05,18.60
2015,07,05,06,06,18.60
2015,07,05,06,07,18.60
2015,07,05,06,08,18.60
2015,07,05,06,09,18.60
2015,07,05,06,10,18.60
2015,07,05,06,11,18.50
2015,07,05,06,12,18.60
2015,07,05,06,13,18.60
2015,07,05,06,14,18.60
2015,07,05,06,15,18.60
2015,07,05,06,16,18.60
2015,07,05,06,17,18.60
2015,07,05,06,18,18.60
2015,07,05,06,19,18.60
2015,07,05,06,20,18.60
2015,07,05,06,21,18.60
2015,07,05,06,22,18.60
2015,07,05,06,23,18.70
2015,07,05,06,24,18.70
2015,07,05,06,25,18.70
2015,07,05,06,26,18.70
2015,07,05,06,27,18.70
2015,07,05,06,28,18.70
2015,07,05,06,29,18.70
2015,07,05,06,30,18.70
2015,07,05,06,31,18.70
2015,07,05,06,32,18.70
2015,07,05,06,33,18.70
2015,07,05,06,34,18.70
2015,07,05,06,35,18.70
2015,07,05,06,36,18.70
2015,07,05,06,37,18.70
2015,07,05,06,38,18.70
2015,07,05,06,39,18.60
2015,07,05,06,40,18.60
2015,07,05,06,41,18.60
2015,07,05,06,42,18.60
2015,07,05,06,43,18.60
2015,07,05,06,44,18.60
2015,07,05,06,45,18.60
2015,07,05,06,46,18.60
2015,07,05,06,47,18.60
2015,07,05,06,48,18.60
2015,07,05,06,49,18.70
2015,07,05,06,50,18.70
2015,07,05,06,51,18.70
2015,07,05,06,52,18.70
2015,07,05,06,53,18.80
2015,07,05,06,54,18.80
2015,07,05,06,55,18.80
2015,07,05,06,56,18.80
2015,07,05,06,57,18.80
2015,07,05,06,58,18.80
2015,07,05,06,59,18.80
2015,07,05,07,00,18.80
2015,07,05,07,01,18.80
2015,07,05,07,02,18.80
2015,07,05,07,03,18.80
2015,07,05,07,04,18.80
2015,07,05,07,05,18.80
2015,07,05,07,06,18.80
2015,07,05,07,07,18.80
2015,07,05,07,08,18.90
2015,07,05,07,09,18.90
2015,07,05,07,10,18.90
2015,07,05,07,11,18.90
2015,07,05,07,12,18.90
2015,07,05,07,13,18.90
2015,07,05,07,14,18.90
2015,07,05,07,15,18.90
2015,07,05,07,16,18.90
2015,07,05,07,17,18.90
2015,07,05,07,18,18.90
2015,07,05,07,19,18.90
2015,07,05,07,20,19.00
2015,07,05,07,21,19.00
2015,07,05,07,22,19.10
2015,07,05,07,23,19.10
2015,07,05,07,24,19.10
2015,07,05,07,25,19.10
2015,07,05,07,26,19.10
2015,07,05,07,27,19.10
2015,07,05,07,28,19.20
2015,07,05,07,29,19.20
2015,07,05,07,30,19.20
2015,07,05,07,31,19.20
2015,07,05,07,32,19.20
2015,07,05,07,33,19.20
2015,07,05,07,34,19.20
2015,07,05,07,35,19.20
2015,07,05,07,36,19.20
2015,07,05,07,37,19.20
2015,07,05,07,38,19.20
2015,07,05,07,39,19.20
2015,07,05,07,40,19.20
2015,07,05,07,41,19.20
2015,07,05,07,42,19.20
2015,07,05,07,43,19.20
2015,07,05,07,44,19.20
2015,07,05,07,45,19.20
2015,07,05,07,46,19.20
2015,07,05,07,47,19.20
2015,07,05,07,48,19.20
2015,07,05,07,49,19.20
2015,07,05,07,50,19.20
2015,07,05,07,51,19.20
2015,07,05,07,52,19.20
2015,07,05,07,53,19.20
2015,07,05,07,54,19.30
2015,07,05,07,55,19.30
2015,07,05,07,56,19.30
2015,07,05,07,57,19.30
2015,07,05,07,58,19.30
2015,07,05,07,59,19.30
2015,07,05,08,00,19.30
2015,07,05,08,01,19.30
2015,07,05,08,02,19.40
2015,07,05,08,03,19.40
2015,07,05,08,04,19.40
2015,07,05,08,05,19.40
2015,07,05,08,06,19.40
2015,07,05,08,07,19.40
2015,07,05,08,08,19.50
2015,07,05,08,09,19.50
2015,07,05,08,10,19.50
2015,07,05,08,11,19.60
2015,07,05,08,12,19.60
2015,07,05,08,13,19.60
2015,07,05,08,14,19.70
2015,07,05,08,15,19.70
2015,07,05,08,16,19.70
2015,07,05,08,17,19.70
2015,07,05,08,18,19.80
2015,07,05,08,19,19.80
2015,07,05,08,20,19.80
2015,07,05,08,21,19.80
2015,07,05,08,22,19.90
2015,07,05,08,23,19.90
2015,07,05,08,24,19.90
2015,07,05,08,25,20.00
2015,07,05,08,26,20.00
2015,07,05,08,27,20.00
2015,07,05,08,28,20.10
2015,07,05,08,29,20.10
2015,07,05,08,30,20.10
2015,07,05,08,31,20.10
2015,07,05,08,32,20.20
2015,07,05,08,33,20.20
2015,07,05,08,34,20.30
2015,07,05,08,35,20.30
2015,07,05,08,36,20.30
2015,07,05,08,37,20.40
2015,07,05,08,38,20.40
2015,07,05,08,39,20.50
2015,07,05,08,40,20.50
2015,07,05,08,41,20.50
2015,07,05,08,42,20.60
2015,07,05,08,43,20.60
2015,07,05,08,44,20.60
2015,07,05,08,45,20.60
2015,07,05,08,46,20.60
2015,07,05,08,47,20.70
2015,07,05,08,48,20.70
2015,07,05,08,49,20.70
2015,07,05,08,50,20.70
2015,07,05,08,51,20.70
2015,07,05,08,52,20.70
2015,07,05,08,53,20.70
2015,07,05,08,54,20.80
2015,07,05,08,55,20.80
2015,07,05,08,56,20.80
2015,07,05,08,57,20.80
2015,07,05,08,58,20.80
2015,07,05,08,59,20.80
2015,07,05,09,00,20.80
2015,07,05,09,01,20.80
2015,07,05,09,02,20.90
2015,07,05,09,03,20.90
2015,07,05,09,04,20.90
2015,07,05,09,05,20.90
2015,07,05,09,06,21.00
2015,07,05,09,07,21.00
2015,07,05,09,08,21.00
2015,07,05,09,09,21.10
2015,07,05,09,10,21.10
2015,07,05,09,11,21.10
2015,07,05,09,12,21.10
2015,07,05,09,13,21.10
2015,07,05,09,14,21.10
2015,07,05,09,15,21.10
2015,07,05,09,16,21.10
2015,07,05,09,17,21.20
2015,07,05,09,18,21.20
2015,07,05,09,19,21.20
2015,07,05,09,20,21.20
2015,07,05,09,21,21.20
2015,07,05,09,22,21.20
2015,07,05,09,23,21.20
2015,07,05,09,24,21.20
2015,07,05,09,25,21.30
2015,07,05,09,26,21.30
2015,07,05,09,27,21.30
2015,07,05,09,28,21.30
2015,07,05,09,29,21.30
2015,07,05,09,30,21.30
2015,07,05,09,31,21.30
2015,07,05,09,32,21.30
2015,07,05,09,33,21.30
2015,07,05,09,34,21.30
2015,07,05,09,35,21.30
2015,07,05,09,36,21.30
2015,07,05,09,37,21.30
2015,07,05,09,38,21.30
2015,07,05,09,39,21.30
2015,07,05,09,40,21.30
2015,07,05,09,41,21.30
2015,07,05,09,42,21.30
2015,07,05,09,43,21.30
2015,07,05,09,44,21.30
2015,07,05,09,45,21.30
2015,07,05,09,46,21.30
2015,07,05,09,47,21.30
2015,07,05,09,48,21.30
2015,07,05,09,49,21.30
2015,07,05,09,50,21.40
2015,07,05,09,51,21.40
2015,07,05,09,52,21.40
2015,07,05,09,53,21.40
2015,07,05,09,54,21.40
2015,07,05,09,55,21.40
2015,07,05,09,56,21.40
2015,07,05,09,57,21.50
2015,07,05,09,58,21.50
2015,07,05,09,59,21.50
2015,07,05,10,00,21.60
2015,07,05,10,01,21.60
2015,07,05,10,02,21.60
2015,07,05,10,03,21.60
2015,07,05,10,04,21.60
2015,07,05,10,05,21.60
2015,07,05,10,06,21.60
2015,07,05,10,07,21.60
2015,07,05,10,08,21.60
2015,07,05,10,09,21.60
2015,07,05,10,10,21.70
2015,07,05,10,11,21.70
2015,07,05,10,12,21.70
2015,07,05,10,13,21.70
2015,07,05,10,14,21.70
2015,07,05,10,15,21.70
2015,07,05,10,16,21.70
2015,07,05,10,17,21.70
2015,07,05,10,18,21.70
2015,07,05,10,19,21.70
2015,07,05,10,20,21.70
2015,07,05,10,21,21.70
2015,07,05,10,22,21.70
2015,07,05,10,23,21.70
2015,07,05,10,24,21.70
2015,07,05,10,25,21.70
2015,07,05,10,26,21.70
2015,07,05,10,27,21.80
2015,07,05,10,28,21.80
2015,07,05,10,29,21.80
2015,07,05,10,30,21.80
2015,07,05,10,31,21.90
2015,07,05,10,32,21.90
2015,07,05,10,33,21.90
2015,07,05,10,34,22.00
2015,07,05,10,35,22.00
2015,07,05,10,36,22.00
2015,07,05,10,37,22.10
2015,07,05,10,38,22.10
2015,07,05,10,39,22.20
2015,07,05,10,40,22.20
2015,07,05,10,41,22.20
2015,07,05,10,42,22.30
2015,07,05,10,43,22.30
2015,07,05,10,44,22.30
2015,07,05,10,45,22.40
2015,07,05,10,46,22.40
2015,07,05,10,47,22.40
2015,07,05,10,48,22.50
2015,07,05,10,49,22.50
2015,07,05,10,50,22.60
2015,07,05,10,51,22.60
2015,07,05,10,52,22.60
2015,07,05,10,53,22.60
2015,07,05,10,54,22.60
2015,07,05,10,55,22.60
2015,07,05,10,56,22.60
2015,07,05,10,57,22.60
2015,07,05,10,58,22.60
2015,07,05,10,59,22.60
2015,07,05,11,00,22.50
2015,07,05,11,01,22.50
2015,07,05,11,02,22.50
2015,07,05,11,03,22.50
2015,07,05,11,04,22.50
2015,07,05,11,05,22.50
2015,07,05,11,06,22.50
2015,07,05,11,07,22.40
2015,07,05,11,08,22.40
2015,07,05,11,09,22.40
2015,07,05,11,10,22.40
2015,07,05,11,11,22.40
2015,07,05,11,12,22.40
2015,07,05,11,13,22.40
2015,07,05,11,14,22.40
2015,07,05,11,15,22.40
2015,07,05,11,16,22.40
2015,07,05,11,17,22.40
2015,07,05,11,18,22.40
2015,07,05,11,19,22.40
2015,07,05,11,20,22.40
2015,07,05,11,21,22.50
2015,07,05,11,22,22.50
2015,07,05,11,23,22.50
2015,07,05,11,24,22.50
2015,07,05,11,25,22.50
2015,07,05,11,26,22.60
2015,07,05,11,27,22.60
2015,07,05,11,28,22.60
2015,07,05,11,29,22.60
2015,07,05,11,30,22.60
2015,07,05,11,31,22.60
2015,07,05,11,32,22.70
2015,07,05,11,33,22.70
2015,07,05,11,34,22.70
2015,07,05,11,35,22.70
2015,07,05,11,36,22.70
2015,07,05,11,37,22.80
2015,07,05,11,38,22.80
2015,07,05,11,39,22.80
2015,07,05,11,40,22.80
2015,07,05,11,41,22.90
2015,07,05,11,42,22.90
2015,07,05,11,43,22.90
2015,07,05,11,44,22.90
2015,07,05,11,45,23.00
2015,07,05,11,46,23.00
2015,07,05,11,47,23.00
2015,07,05,11,48,23.00
2015,07,05,11,49,23.00
2015,07,05,11,50,23.00
2015,07,05,11,51,23.00
2015,07,05,11,52,23.00
2015,07,05,11,53,23.10
2015,07,05,11,54,23.10
2015,07,05,11,55,23.10
2015,07,05,11,56,23.10
2015,07,05,11,57,23.10
2015,07,05,11,58,23.10
2015,07,05,11,59,23.10
2015,07,05,12,00,23.10
2015,07,05,12,01,23.10
2015,07,05,12,02,23.20
2015,07,05,12,03,23.20
2015,07,05,12,04,23.20
2015,07,05,12,05,23.20
2015,07,05,12,06,23.30
2015,07,05,12,07,23.30
2015,07,05,12,08,23.30
2015,07,05,12,09,23.30
2015,07,05,12,10,23.30
2015,07,05,12,11,23.40
2015,07,05,12,12,23.40
2015,07,05,12,13,23.40
2015,07,05,12,14,23.40
2015,07,05,12,15,23.40
2015,07,05,12,16,23.50
2015,07,05,12,17,23.50
2015,07,05,12,18,23.60
2015,07,05,12,19,23.60
2015,07,05,12,20,23.60
2015,07,05,12,21,23.70
2015,07,05,12,22,23.70
2015,07,05,12,23,23.70
2015,07,05,12,24,23.80
2015,07,05,12,25,23.80
2015,07,05,12,26,23.90
2015,07,05,12,27,23.90
2015,07,05,12,28,24.00
2015,07,05,12,29,24.00
2015,07,05,12,30,24.10
2015,07,05,12,31,24.10
2015,07,05,12,32,24.20
2015,07,05,12,33,24.30
2015,07,05,12,34,24.30
2015,07,05,12,35,24.30
2015,07,05,12,36,24.30
2015,07,05,12,37,24.40
2015,07,05,12,38,24.40
2015,07,05,12,39,24.40
2015,07,05,12,40,24.40
2015,07,05,12,41,24.40
2015,07,05,12,42,24.40
2015,07,05,12,43,24.40
2015,07,05,12,44,24.40
2015,07,05,12,45,24.40
2015,07,05,12,46,24.40
2015,07,05,12,47,24.50
2015,07,05,12,48,24.50
2015,07,05,12,49,24.50
2015,07,05,12,50,24.60
2015,07,05,12,51,24.60
2015,07,05,12,52,24.60
2015,07,05,12,53,24.70
2015,07,05,12,54,24.70
2015,07,05,12,55,24.80
2015,07,05,12,56,24.90
2015,07,05,12,57,24.90
2015,07,05,12,58,25.00
2015,07,05,12,59,25.10
2015,07,05,13,00,25.10
2015,07,05,13,01,25.10
2015,07,05,13,02,25.20
2015,07,05,13,03,25.20
2015,07,05,13,04,25.30
2015,07,05,13,05,25.30
2015,07,05,13,06,25.40
2015,07,05,13,07,25.50
2015,07,05,13,08,25.50
2015,07,05,13,09,25.60
2015,07,05,13,10,25.60
2015,07,05,13,11,25.70
2015,07,05,13,12,25.80
2015,07,05,13,13,25.80
2015,07,05,13,14,25.90
2015,07,05,13,15,25.90
2015,07,05,13,16,26.00
2015,07,05,13,17,26.00
2015,07,05,13,18,26.00
2015,07,05,13,19,26.00
2015,07,05,13,20,26.00
2015,07,05,13,21,26.00
2015,07,05,13,22,26.00
2015,07,05,13,23,26.00
2015,07,05,13,24,26.10
2015,07,05,13,25,26.10
2015,07,05,13,26,26.10
2015,07,05,13,27,26.20
2015,07,05,13,28,26.20
2015,07,05,13,29,26.20
2015,07,05,13,30,26.30
2015,07,05,13,31,26.30
2015,07,05,13,32,26.40
2015,07,05,13,33,26.40
2015,07,05,13,34,26.50
2015,07,05,13,35,26.60
2015,07,05,13,36,26.60
2015,07,05,13,37,26.70
2015,07,05,13,38,26.80
2015,07,05,13,39,26.80
2015,07,05,13,40,26.90
2015,07,05,13,41,26.90
2015,07,05,13,42,27.00
2015,07,05,13,43,27.00
2015,07,05,13,44,27.10
2015,07,05,13,45,27.20
2015,07,05,13,46,27.20
2015,07,05,13,47,27.20
2015,07,05,13,48,27.30
2015,07,05,13,49,27.30
2015,07,05,13,50,27.30
2015,07,05,13,51,27.40
2015,07,05,13,52,27.40
2015,07,05,13,53,27.50
2015,07,05,13,54,27.50
2015,07,05,13,55,27.50
2015,07,05,13,56,27.60
2015,07,05,13,57,27.60
2015,07,05,13,58,27.60
2015,07,05,13,59,27.60
2015,07,05,14,00,27.60
2015,07,05,14,01,27.60
2015,07,05,14,02,27.60
2015,07,05,14,03,27.60
2015,07,05,14,04,27.60
2015,07,05,14,05,27.60
2015,07,05,14,06,27.70
2015,07,05,14,07,27.70
2015,07,05,14,08,27.70
2015,07,05,14,09,27.80
2015,07,05,14,10,27.80
2015,07,05,14,11,27.80
2015,07,05,14,12,27.90
2015,07,05,14,13,28.00
2015,07,05,14,14,28.10
2015,07,05,14,15,28.10
2015,07,05,14,16,28.20
2015,07,05,14,17,28.20
2015,07,05,14,18,28.30
2015,07,05,14,19,28.30
2015,07,05,14,20,28.30
2015,07,05,14,21,28.30
2015,07,05,14,22,28.30
2015,07,05,14,23,28.40
2015,07,05,14,24,28.40
2015,07,05,14,25,28.40
2015,07,05,14,26,28.50
2015,07,05,14,27,28.50
2015,07,05,14,28,28.50
2015,07,05,14,29,28.60
2015,07,05,14,30,28.60
2015,07,05,14,31,28.60
2015,07,05,14,32,28.60
2015,07,05,14,33,28.70
2015,07,05,14,34,28.70
2015,07,05,14,35,28.70
2015,07,05,14,36,28.80
2015,07,05,14,37,28.80
2015,07,05,14,38,28.80
2015,07,05,14,39,28.80
2015,07,05,14,40,28.90
2015,07,05,14,41,28.90
2015,07,05,14,42,28.90
2015,07,05,14,43,28.90
2015,07,05,14,44,29.00
2015,07,05,14,45,29.00
2015,07,05,14,46,29.00
2015,07,05,14,47,29.00
2015,07,05,14,48,29.10
2015,07,05,14,49,29.10
2015,07,05,14,50,29.20
2015,07,05,14,51,29.20
2015,07,05,14,52,29.30
2015,07,05,14,53,29.30
2015,07,05,14,54,29.30
2015,07,05,14,55,29.30
2015,07,05,14,56,29.30
2015,07,05,14,57,29.40
2015,07,05,14,58,29.40
2015,07,05,14,59,29.40
2015,07,05,15,00,29.40
2015,07,05,15,01,29.50
2015,07,05,15,02,29.50
2015,07,05,15,03,29.60
2015,07,05,15,04,29.60
2015,07,05,15,05,29.60
2015,07,05,15,06,29.60
2015,07,05,15,07,29.70
2015,07,05,15,08,29.70
2015,07,05,15,09,29.80
2015,07,05,15,10,29.80
2015,07,05,15,11,29.80
2015,07,05,15,12,29.80
2015,07,05,15,13,29.80
2015,07,05,15,14,29.80
2015,07,05,15,15,29.80
2015,07,05,15,16,29.90
2015,07,05,15,17,29.90
2015,07,05,15,18,29.90
2015,07,05,15,19,30.00
2015,07,05,15,20,30.00
2015,07,05,15,21,30.10
2015,07,05,15,22,30.10
2015,07,05,15,23,30.20
2015,07,05,15,24,30.20
2015,07,05,15,25,30.30
2015,07,05,15,26,30.30
2015,07,05,15,27,30.30
2015,07,05,15,28,30.30
2015,07,05,15,29,30.30
2015,07,05,15,30,30.30
2015,07,05,15,31,30.30
2015,07,05,15,32,30.30
2015,07,05,15,33,30.30
2015,07,05,15,34,30.30
2015,07,05,15,35,30.40
2015,07,05,15,36,30.40
2015,07,05,15,37,30.40
2015,07,05,15,38,30.40
2015,07,05,15,39,30.40
2015,07,05,15,40,30.40
2015,07,05,15,41,30.50
2015,07,05,15,42,30.50
2015,07,05,15,43,30.60
2015,07,05,15,44,30.60
2015,07,05,15,45,30.60
2015,07,05,15,46,30.60
2015,07,05,15,47,30.60
2015,07,05,15,48,30.60
2015,07,05,15,49,30.70
2015,07,05,15,50,30.70
2015,07,05,15,51,30.70
2015,07,05,15,52,30.70
2015,07,05,15,53,30.70
2015,07,05,15,54,30.70
2015,07,05,15,55,30.70
2015,07,05,15,56,30.70
2015,07,05,15,57,30.70
2015,07,05,15,58,30.70
2015,07,05,15,59,30.70
2015,07,05,16,00,30.70
2015,07,05,16,01,30.70
2015,07,05,16,02,30.70
2015,07,05,16,03,30.70
2015,07,05,16,04,30.70
2015,07,05,16,05,30.70
2015,07,05,16,06,30.70
2015,07,05,16,07,30.70
2015,07,05,16,08,30.70
2015,07,05,16,09,30.80
2015,07,05,16,10,30.80
2015,07,05,16,11,30.80
2015,07,05,16,12,30.80
2015,07,05,16,13,30.80
2015,07,05,16,14,30.80
2015,07,05,16,15,30.80
2015,07,05,16,16,30.80
2015,07,05,16,17,30.80
2015,07,05,16,18,30.80
2015,07,05,16,19,30.80
2015,07,05,16,20,30.80
2015,07,05,16,21,30.80
2015,07,05,16,22,30.80
2015,07,05,16,23,30.80
2015,07,05,16,24,30.80
2015,07,05,16,25,30.80
2015,07,05,16,26,30.80
2015,07,05,16,27,30.80
2015,07,05,16,28,30.80
2015,07,05,16,29,30.80
2015,07,05,16,30,30.80
2015,07,05,16,31,30.80
2015,07,05,16,32,30.90
2015,07,05,16,33,30.90
2015,07,05,16,34,30.90
2015,07,05,16,35,30.90
2015,07,05,16,36,30.90
2015,07,05,16,37,30.90
2015,07,05,16,38,30.90
2015,07,05,16,39,30.90
2015,07,05,16,40,31.00
2015,07,05,16,41,31.00
2015,07,05,16,42,31.00
2015,07,05,16,43,31.00
2015,07,05,16,44,31.00
2015,07,05,16,45,31.10
2015,07,05,16,46,31.10
2015,07,05,16,47,31.10
2015,07,05,16,48,31.10
2015,07,05,16,49,31.10
2015,07,05,16,50,31.20
2015,07,05,16,51,31.20
2015,07,05,16,52,31.10
2015,07,05,16,53,31.10
2015,07,05,16,54,31.10
2015,07,05,16,55,31.10
2015,07,05,16,56,31.10
2015,07,05,16,57,31.10
2015,07,05,16,58,31.10
2015,07,05,16,59,31.10
2015,07,05,17,00,31.10
2015,07,05,17,01,31.10
2015,07,05,17,02,31.10
2015,07,05,17,03,31.10
2015,07,05,17,04,31.10
2015,07,05,17,05,31.10
2015,07,05,17,06,31.10
2015,07,05,17,07,31.10
2015,07,05,17,08,31.10
2015,07,05,17,09,31.10
2015,07,05,17,10,31.10
2015,07,05,17,11,31.10
2015,07,05,17,12,31.10
2015,07,05,17,13,31.10
2015,07,05,17,14,31.10
2015,07,05,17,15,31.10
2015,07,05,17,16,31.10
2015,07,05,17,17,31.10
2015,07,05,17,18,31.10
2015,07,05,17,19,31.10